Home   Weather   Molepolole   Past weeks

Flag for Botswana Past Weather in Molepolole, Botswana — Yesterday and Last 2 Weeks

Now
54 °F

Clear.


Feels Like: 51 °F
Forecast: 51 / 79 °F
Wind: 8 mph from Southeast

Location: Seretse Khama International Airport

Current Time: Sep 1, 2016 at 5:46:50 AM

Latest Report: Sep 1, 2016 at 5:00 AM


Visibility: 10 mi

Pressure: 30.27 "Hg (26.39 "Hg at 1145m altitude)

Humidity: 33%

Dew Point: 25 °F

Location of MolepololeLocation

Past Weather in Molepolole — Graph

°F

Molepolole Temperature Yesterday

Maximum temperature yesterday: 84 °F (at 2:00 PM)
Minimum temperature yesterday: 50 °F (at 3:00 AM)
Average temperature yesterday: 69 °F

High & Low Weather Summary for the Past Weeks

 TemperatureHumidityPressure
High91 °F (Aug 22, 2:00 PM)88% (Aug 22, 10:00 PM)30.48 "Hg (Aug 22, 10:00 PM)
Low39 °F (Aug 23, 5:00 AM)6% (Aug 22, 5:00 PM)29.92 "Hg (Aug 19, 12:00 AM)
Average66 °F31%30.27 "Hg
* Reported Aug 17 4:00 AM — Sep 1 4:00 AM, Molepolole, Weather by CustomWeather, © 2016

Note: Actual official high and low records may vary slightly from our data, if they occured in-between our weather recording intervals... More about our weather records

Advertising

Molepolole Weather History for the Previous 24 Hours

Scroll right to see more
 ConditionsComfort  
Time TempWeatherWind HumidityBarometerVisibility
4:00 AM
Thu, Sep 1
54 °FClear.8 mph30%30.24 "Hg10 mi
2:00 AM61 °FClear.7 mph23%30.24 "Hg10 mi
1:00 AM61 °FClear.7 mph23%30.24 "Hg10 mi
12:00 AM63 °FClear.6 mph22%30.24 "Hg10 mi
11:00 PM
Wed, Aug 31
66 °FClear.5 mph19%30.24 "Hg10 mi
10:00 PM66 °FClear.6 mph19%30.24 "Hg10 mi
9:00 PM68 °FClear.5 mph18%30.24 "Hg10 mi
8:00 PM72 °FClear.5 mph17%30.21 "Hg10 mi
7:00 PM75 °FClear.6 mph15%30.18 "Hg10 mi
6:00 PM81 °FPassing clouds.6 mph13%30.18 "HgN/A
5:00 PM82 °FPassing clouds.9 mph13%30.18 "HgN/A
4:00 PM84 °FPassing clouds.10 mph12%30.18 "HgN/A
3:00 PM84 °FPassing clouds.13 mph12%30.18 "HgN/A
2:00 PM84 °FPassing clouds.10 mph13%30.21 "HgN/A
1:00 PM81 °FPassing clouds.10 mph15%30.24 "HgN/A
12:00 PM79 °FPassing clouds.10 mph17%30.27 "HgN/A
11:00 AM77 °FSunny.13 mph19%30.30 "Hg10 mi
10:00 AM73 °FSunny.13 mph23%30.33 "Hg10 mi
9:00 AM68 °FPassing clouds.9 mph24%30.33 "HgN/A
8:00 AM63 °FSunny.7 mph24%30.30 "Hg10 mi
7:00 AM55 °FPassing clouds.8 mph28%30.27 "HgN/A
6:00 AM54 °FSunny.7 mph33%30.27 "Hg10 mi
5:00 AM55 °FClear.8 mph31%30.27 "Hg10 mi
Weather by CustomWeather, © 2016

See weather overviewHow to use our weather pages